Location: McKinley Crossing
(64.8808°N, 149.6453°W)
Time: 14:30:03
(UTC+00:00)

JY1SAT - Visible Passes

Search period start: 20 April 2021 00:00
Search period end: 30 April 2021 00:00
Orbit: 570 x 589 km, 97.7° (Epoch: 19 April)

Date Brightness Start Highest point End Pass type
(mag) Time Alt. Az. Time Alt. Az. Time Alt. Az.
20 Apr ? 08:17:36 10° SSW 08:21:17 29° W 08:25:00 10° NNW visible
21 Apr ? 08:22:37 10° SSW 08:26:13 27° W 08:29:51 10° NNW visible
22 Apr ? 08:27:38 10° SSW 08:31:09 26° W 08:34:42 10° NNW visible
23 Apr ? 06:56:04 10° SSE 07:00:15 83° ENE 07:04:28 10° NNW visible
23 Apr ? 08:32:40 10° SW 08:36:06 24° W 08:39:33 10° NW visible
24 Apr ? 07:00:56 10° SSE 07:05:09 89° ENE 07:09:21 10° NNW visible
24 Apr ? 08:37:42 10° SW 08:41:02 22° W 08:44:22 10° NW visible
25 Apr ? 07:05:50 10° SSE 07:10:01 86° WSW 07:14:15 10° NNW visible
25 Apr ? 08:42:46 10° SW 08:45:58 21° W 08:49:11 10° NW visible
26 Apr ? 07:10:43 10° SSE 07:14:54 80° WSW 07:19:07 10° NNW visible
26 Apr ? 08:47:51 10° SW 08:50:54 20° W 08:54:00 10° NW visible
27 Apr ? 07:15:37 10° SSE 07:19:48 74° WSW 07:24:01 10° NNW visible
27 Apr ? 08:52:55 10° SW 08:55:51 18° W 08:58:48 10° NW visible
28 Apr ? 07:20:31 10° S 07:24:41 69° WSW 07:28:53 10° NNW visible
28 Apr ? 08:58:01 10° SW 09:00:47 17° W 09:03:35 10° NW visible
29 Apr ? 07:25:25 10° S 07:29:35 64° WSW 07:33:45 10° NNW visible
29 Apr ? 09:03:08 10° WSW 09:05:44 16° W 09:08:21 10° NW visible
